STARLINK-1171, 45062

Orbit data source: Space-Track

STARLINK-1171, 45062 is a payload satellite owned by SpaceX/Seattle (US) in LEO that was launched on Wed, 29 Jan 2020 UTC via an FALCON 9 launch vehicle from the Air Force Eastern Test Range (AFETR). Payload-class satellites include a variety of spacecraft equipped with specific instruments for various scientific and technological missions. These include communications satellites like Starlink; space stations such as the ISS; scientific satellites like the Hubble; Earth observation satellites from companies like Planet Labs, Umbra, and HawkEye 360; GPS; miniature CubeSats for education and research; and military/defense satellites.

Loading next visibility...
Identifier
45062, 2020-006U
Orbit
LEO
Country
Flag of USUS
Related business
Manufacturer
SpaceX/Seattle
Mission
Operational Commercial Communications
Bus & Motor
STARLINK, Unknown motor
Mass
260 kg wet, ~248 kg dry
Launch date (UTC)
2020-01-29 (6 years ago)
Launch vehicle
FALCON 9
Launch site
Air Force Eastern Test Range (AFETR)
Object type
Payload
Rocket body
Debris
Shape & HBR
Box + 1 Pan, 4.4 m
Radar Cross Section
13.562 m², Large (>1 m²)

Expand to show TLE details & history
Last TLE update: 11 hours ago

TLE from 11 hours ago
0 STARLINK-1171
1 45062U 20006U   25258.52884349 -.00000973  00000-0 -46475-4 0  9991
2 45062  53.0567 352.9445 0001248  92.4906 267.6226 15.06387184310066
Epoch: 2025-09-15T12:41Z
TLE epoch observation values (Epoch: 2025-09-15T12:41:32.077Z)
Latitude
-0.00001°
Longitude
167.82864°
Altitude
548.166 km
Speed
7.589 km/s
True Right ascension
23h 31m 46s
True Declination
0° 00' 00"
Sunlit
Object was in full shadow at epoch
Visualization orbit readout
Latitude
Unknown
Longitude
Unknown
Altitude
Unknown
Speed
Unknown
Apparent Right ascension
Unknown
Apparent Declination
Unknown
Sunlit
N/A
Visualization observer readout
Local Sidereal Time
15:59:56
Azimuth
Unknown
Elevation
Unknown
Doppler factor
Unknown
Orbital elements
Apogee altitude
548.386 km
Perigee altitude
546.657 km
Semi-major axis
6,925.658 km
Eccentricity
0.00012
Inclination
53.0567°
RAAN
352.9445°
Arg. of periapsis
92.4906°
True anomaly
267.60831°
Mean anomaly
267.6226°
Eccentric anomaly
267.61546°
Mean motion
3.76575 °/min
Orbital period
95.6 mins
BSTAR
-0.000046475
Loading maneuver chart data...
Computing Atmospheric mass density...

Documentation

Showing up to 5 results
|